GW6635 Weather Reports


Display with metric or nautical units.
time (UTC)temp
F
wind
direction
speed
MPH
gust
MPH
rain 1hr
in
rain 24hr
in
rain mn
in
humidity
%
barometer
mb
20260509022300 73 144 0.0 2.0 0.00 0.00 0.00 74 1009.2
20260509021757 73 166 1.0 2.0 0.00 0.00 0.00 74 1009.1
20260509021254 73 242 0.0 2.0 0.00 0.00 0.00 74 1009.1
20260509020752 73 160 0.0 4.0 0.00 0.00 0.00 74 1009.2
20260509020249 73 125 1.0 3.0 0.00 0.00 0.00 74 1009.1
20260509015747 73 189 2.0 3.0 0.00 0.00 0.00 73 1009.2
20260509015245 73 154 0.0 3.0 0.00 0.00 0.00 73 1009.1
20260509014741 73 153 1.0 4.0 0.00 0.00 0.00 73 1009.1
20260509014238 73 144 3.0 4.0 0.00 0.00 0.00 73 1009.1
20260509013735 73 174 0.0 3.0 0.00 0.00 0.00 73 1009.2
20260509013230 73 169 1.0 2.0 0.00 0.00 0.00 73 1008.9
20260509012727 73 222 0.0 2.0 0.00 0.00 0.00 73 1008.8
20260509012224 73 165 0.0 2.0 0.00 0.00 0.00 72 1008.9
20260509011721 73 156 2.0 3.0 0.00 0.00 0.00 72 1008.8
20260509011219 73 150 0.0 3.0 0.00 0.00 0.00 72 1008.8
20260509010717 73 192 2.0 3.0 0.00 0.00 0.00 72 1008.6
20260509010213 73 165 0.0 1.0 0.00 0.00 0.00 71 1008.6
20260509005710 73 130 0.0 2.0 0.00 0.00 0.00 71 1008.6
20260509005207 73 207 0.0 2.0 0.00 0.00 0.00 70 1008.5
20260509004702 73 147 2.0 4.0 0.00 0.00 0.00 70 1008.4
20260509004200 73 157 0.0 4.0 0.00 0.00 0.00 70 1008.3
20260509003658 74 201 1.0 4.0 0.00 0.00 0.00 69 1008.3
20260509003155 74 109 2.0 3.0 0.00 0.00 0.00 69 1008.4
20260509002652 74 183 2.0 6.0 0.00 0.00 0.00 69 1008.3
20260509002149 74 142 1.0 2.0 0.00 0.00 0.00 68 1008.2
20260509001647 74 137 1.0 6.0 0.00 0.00 0.00 67 1008.3
20260509001142 74 192 2.0 6.0 0.00 0.00 0.00 67 1008.3
20260509000641 75 116 1.0 3.0 0.00 0.00 0.00 66 1008.5
20260509000138 75 195 1.0 3.0 0.00 0.00 0.00 66 1008.6
20260508235635 75 190 1.0 3.0 0.00 0.00 0.00 65 1008.5
20260508235131 75 148 0.0 4.0 0.00 0.00 0.00 65 1008.7
20260508234629 75 186 2.0 6.0 0.00 0.00 0.00 64 1008.6
20260508234125 75 168 4.0 9.0 0.00 0.00 0.00 64 1008.6
20260508233625 76 195 1.0 8.0 0.00 0.00 0.00 63 1008.9
20260508233122 77 229 1.0 3.0 0.00 0.00 0.00 62 1008.8
20260508232619 77 209 0.0 4.0 0.00 0.00 0.00 63 1008.8
20260508232115 77 227 2.0 3.0 0.00 0.00 0.00 63 1008.9
20260508231613 76 163 1.0 2.0 0.00 0.00 0.00 64 1008.8
20260508231110 76 125 2.0 6.0 0.00 0.00 0.00 63 1008.9
20260508230606 76 149 2.0 6.0 0.00 0.00 0.00 63 1008.9
20260508225601 76 153 2.0 4.0 0.00 0.00 0.00 64 1008.9
20260508225057 76 152 0.0 7.0 0.00 0.00 0.00 64 1008.9
20260508224555 77 133 2.0 6.0 0.00 0.00 0.00 63 1009.1
20260508224052 77 128 2.0 7.0 0.00 0.00 0.00 63 1008.7
20260508223550 77 137 1.0 4.0 0.00 0.00 0.00 63 1008.8
20260508223047 78 204 1.0 7.0 0.00 0.00 0.00 62 1008.8
20260508222544 78 306 2.0 8.0 0.00 0.00 0.00 61 1008.8
20260508222041 78 151 4.0 7.0 0.00 0.00 0.00 61 1008.5
20260508221537 79 214 2.0 4.0 0.00 0.00 0.00 61 1008.5
20260508221033 79 162 2.0 7.0 0.00 0.00 0.00 60 1008.7
20260508220530 80 171 1.0 7.0 0.00 0.00 0.00 60 1008.6
20260508220026 80 135 2.0 8.0 0.00 0.00 0.00 58 1008.4
20260508215523 80 187 1.0 2.0 0.00 0.00 0.00 60 1008.4
20260508215020 80 159 3.0 7.0 0.00 0.00 0.00 57 1008.4
20260508214517 80 232 1.0 2.0 0.00 0.00 0.00 58 1008.8
20260508214013 79 202 2.0 7.0 0.00 0.00 0.00 58 1008.6
20260508213511 79 138 1.0 6.0 0.00 0.00 0.00 60 1008.3
20260508213007 79 192 2.0 4.0 0.00 0.00 0.00 58 1008.6
20260508212503 79 171 1.0 6.0 0.00 0.00 0.00 58 1008.9
20260508211959 78 152 1.0 6.0 0.00 0.00 0.00 60 1008.9
20260508211455 76 176 1.0 4.0 0.00 0.00 0.00 62 1009.3
20260508210952 75 157 0.0 3.0 0.00 0.00 0.00 65 1009.5
20260508210449 75 178 2.0 4.0 0.00 0.00 0.00 64 1009.8
20260508205945 75 170 2.0 7.0 0.00 0.00 0.00 64 1009.9
20260508205442 75 179 4.0 8.0 0.00 0.00 0.00 63 1010.0
20260508204938 75 159 1.0 6.0 0.00 0.00 0.00 64 1010.4
20260508204436 75 165 2.0 6.0 0.00 0.00 0.00 63 1010.4
20260508203931 75 202 4.0 6.0 0.00 0.00 0.00 62 1010.5
20260508203428 75 197 2.0 4.0 0.00 0.00 0.00 62 1010.5
20260508202923 75 149 1.0 6.0 0.00 0.00 0.00 62 1010.5
20260508202421 76 207 2.0 7.0 0.00 0.00 0.00 61 1010.5
20260508201918 76 168 1.0 4.0 0.00 0.00 0.00 61 1010.7
20260508201415 77 317 3.0 8.0 0.00 0.00 0.00 60 1010.6
20260508200911 77 147 1.0 6.0 0.00 0.00 0.00 60 1010.6
20260508200408 78 227 2.0 6.0 0.00 0.00 0.00 57 1010.6
20260508195903 79 171 0.0 4.0 0.00 0.00 0.00 58 1010.4
20260508195401 79 186 2.0 8.0 0.00 0.00 0.00 57 1010.6
20260508194857 79 213 0.0 4.0 0.00 0.00 0.00 58 1010.6
20260508194354 79 177 4.0 7.0 0.00 0.00 0.00 56 1010.7
20260508193851 79 182 2.0 6.0 0.00 0.00 0.00 56 1010.7
20260508193348 80 220 3.0 4.0 0.00 0.00 0.00 56 1010.8
20260508192844 79 140 2.0 2.0 0.00 0.00 0.00 56 1010.8
20260508192341 79 181 3.0 6.0 0.00 0.00 0.00 57 1010.9
20260508191838 78 167 4.0 6.0 0.00 0.00 0.00 58 1010.8
20260508191336 78 151 4.0 7.0 0.00 0.00 0.00 56 1010.9
20260508190832 78 183 0.0 2.0 0.00 0.00 0.00 58 1010.9
20260508190329 79 164 3.0 7.0 0.00 0.00 0.00 56 1010.9
20260508185825 79 161 1.0 7.0 0.00 0.00 0.00 57 1011.2
20260508185323 79 171 1.0 2.0 0.00 0.00 0.00 55 1011.1
20260508184820 79 150 1.0 6.0 0.00 0.00 0.00 56 1011.2
20260508184317 79 177 1.0 2.0 0.00 0.00 0.00 55 1011.0
20260508183814 78 134 1.0 2.0 0.00 0.00 0.00 56 1011.3
20260508183311 78 178 0.0 6.0 0.00 0.00 0.00 56 1011.3
20260508182806 79 194 2.0 4.0 0.00 0.00 0.00 53 1011.5
20260508182306 79 159 2.0 4.0 0.00 0.00 0.00 54 1011.5
20260508181759 79 125 1.0 3.0 0.00 0.00 0.00 54 1011.5
20260508181256 78 215 3.0 4.0 0.00 0.00 0.00 54 1011.8
20260508180753 80 159 3.0 4.0 0.00 0.00 0.00 54 1011.8
20260508180250 78 97 1.0 3.0 0.00 0.00 0.00 56 1012.0
20260508175746 78 170 2.0 8.0 0.00 0.00 0.00 55 1011.9
20260508175242 78 199 2.0 6.0 0.00 0.00 0.00 56 1012.1
20260508174741 79 178 4.0 6.0 0.00 0.00 0.00 52 1012.3
20260508174238 79 192 1.0 3.0 0.00 0.00 0.00 55 1012.2
20260508173734 78 195 4.0 4.0 0.00 0.00 0.00 54 1012.3
20260508173230 78 70 1.0 3.0 0.00 0.00 0.00 53 1012.0
20260508172727 78 142 1.0 2.0 0.00 0.00 0.00 55 1012.5
20260508172224 77 272 1.0 3.0 0.00 0.00 0.00 56 1012.6
20260508171721 77 183 1.0 7.0 0.00 0.00 0.00 55 1012.8
20260508171217 77 196 3.0 4.0 0.00 0.00 0.00 55 1012.8
20260508170714 75 106 0.0 1.0 0.00 0.00 0.00 60 1012.9
20260508170212 73 197 1.0 6.0 0.00 0.00 0.00 60 1013.0
20260508165708 73 157 2.0 6.0 0.00 0.00 0.00 60 1013.2
20260508165205 73 248 0.0 6.0 0.00 0.00 0.00 61 1013.3
20260508164702 73 137 2.0 6.0 0.00 0.00 0.00 60 1013.5
20260508164159 74 198 2.0 7.0 0.00 0.00 0.00 59 1013.6
20260508163657 73 160 1.0 2.0 0.00 0.00 0.00 60 1013.7
20260508163154 73 162 0.0 3.0 0.00 0.00 0.00 61 1013.6
20260508162649 72 251 1.0 3.0 0.00 0.00 0.00 61 1013.7
20260508162146 72 192 3.0 6.0 0.00 0.00 0.00 59 1013.8
20260508161643 72 190 1.0 6.0 0.00 0.00 0.00 62 1013.9
20260508161141 71 173 1.0 7.0 0.00 0.00 0.00 61 1013.9
20260508160639 71 169 4.0 4.0 0.00 0.00 0.00 61 1013.9
20260508160136 71 170 2.0 4.0 0.00 0.00 0.00 62 1013.8
20260508155634 70 134 2.0 3.0 0.00 0.00 0.00 62 1014.2
20260508155130 71 222 2.0 6.0 0.00 0.00 0.00 61 1014.2
20260508154627 71 167 1.0 3.0 0.00 0.00 0.00 62 1014.3
20260508154124 71 179 2.0 6.0 0.00 0.00 0.00 62 1014.3
20260508153621 70 186 2.0 3.0 0.00 0.00 0.00 62 1014.2
20260508153117 69 168 2.0 2.0 0.00 0.00 0.00 63 1014.5
20260508152614 69 205 1.0 6.0 0.00 0.00 0.00 64 1014.6
20260508152109 69 213 2.0 4.0 0.00 0.00 0.00 63 1014.7
20260508151607 69 199 4.0 7.0 0.00 0.00 0.00 62 1014.5
20260508151104 69 189 4.0 4.0 0.00 0.00 0.00 63 1014.7
20260508150601 70 201 0.0 3.0 0.00 0.00 0.00 61 1014.6
20260508150057 70 131 0.0 2.0 0.00 0.00 0.00 61 1014.5
20260508145553 69 240 1.0 4.0 0.00 0.00 0.00 63 1014.1
20260508145050 69 191 2.0 4.0 0.00 0.00 0.00 62 1014.2
20260508144548 69 171 2.0 6.0 0.00 0.00 0.00 63 1014.2
20260508144044 68 162 0.0 1.0 0.00 0.00 0.00 66 1014.4
20260508143542 69 138 4.0 6.0 0.00 0.00 0.00 64 1014.7
20260508143038 68 120 1.0 6.0 0.00 0.00 0.00 65 1014.6
20260508142536 68 149 1.0 6.0 0.00 0.00 0.00 67 1014.7
20260508142032 68 149 1.0 6.0 0.00 0.00 0.00 67 1014.6
20260508141528 67 132 1.0 3.0 0.00 0.00 0.00 69 1014.8
20260508141027 67 202 1.0 7.0 0.00 0.00 0.00 68 1014.8
20260508140524 66 156 2.0 4.0 0.00 0.00 0.00 69 1014.7
20260508140020 66 165 1.0 2.0 0.00 0.00 0.00 72 1014.8
20260508135515 66 187 1.0 3.0 0.00 0.00 0.00 72 1014.8
20260508135012 65 137 2.0 3.0 0.00 0.00 0.00 73 1014.7
20260508134508 65 53 1.0 3.0 0.00 0.00 0.00 73 1014.7
20260508134006 65 196 0.0 3.0 0.00 0.00 0.00 76 1014.5
20260508133503 64 170 2.0 4.0 0.00 0.00 0.00 76 1014.7
20260508132959 64 235 1.0 3.0 0.00 0.00 0.00 77 1014.8
20260508132458 64 144 0.0 0.0 0.00 0.00 0.00 78 1014.7
20260508131954 64 174 0.0 1.0 0.00 0.00 0.00 77 1014.7
20260508131449 64 170 0.0 2.0 0.00 0.00 0.00 78 1014.7
20260508130946 64 149 0.0 1.0 0.00 0.00 0.00 79 1014.8
20260508130444 64 192 1.0 1.0 0.00 0.00 0.00 81 1014.8
20260508125939 63 162 0.0 0.0 0.00 0.00 0.00 81 1014.9
20260508125435 63 183 0.0 3.0 0.00 0.00 0.00 81 1014.7
20260508124933 63 149 0.0 1.0 0.00 0.00 0.00 81 1014.7
20260508124431 63 146 0.0 1.0 0.00 0.00 0.00 81 1015.0
20260508123928 62 180 0.0 1.0 0.00 0.00 0.00 81 1015.0
20260508123427 62 159 0.0 0.0 0.00 0.00 0.00 82 1015.1
20260508122923 62 172 0.0 1.0 0.00 0.00 0.00 82 1014.9
20260508122420 62 153 2.0 2.0 0.00 0.00 0.00 82 1015.0
20260508121917 62 166 0.0 1.0 0.00 0.00 0.00 82 1015.0
20260508121415 62 67 0.0 0.0 0.00 0.00 0.00 83 1014.8
20260508120912 62 343 0.0 0.0 0.00 0.00 0.00 82 1014.9
20260508120410 62 338 0.0 0.0 0.00 0.00 0.00 83 1015.3
20260508115908 62 185 0.0 0.0 0.00 0.00 0.00 82 1014.9
20260508115405 62 233 0.0 0.0 0.00 0.00 0.00 83 1015.0
20260508114901 62 149 0.0 1.0 0.00 0.00 0.00 83 1015.1
20260508114358 62 332 1.0 2.0 0.00 0.00 0.00 82 1015.0
20260508113855 62 169 0.0 1.0 0.00 0.00 0.00 82 1014.9
20260508113353 62 134 1.0 2.0 0.00 0.00 0.00 81 1014.7
20260508112850 62 148 1.0 3.0 0.00 0.00 0.00 81 1014.8
20260508112347 62 174 1.0 4.0 0.00 0.00 0.00 81 1014.8
20260508111843 62 167 0.0 1.0 0.00 0.00 0.00 81 1014.9
20260508111340 62 68 0.0 0.0 0.00 0.00 0.00 81 1015.2
20260508110837 62 120 0.0 0.0 0.00 0.00 0.00 82 1015.1
20260508110335 62 204 1.0 1.0 0.00 0.00 0.00 82 1015.4
20260508105835 62 163 0.0 1.0 0.00 0.00 0.00 82 1015.2
20260508105332 62 297 0.0 1.0 0.00 0.00 0.00 82 1015.4
20260508104828 62 335 2.0 3.0 0.00 0.00 0.00 82 1015.6
20260508104325 62 332 3.0 3.0 0.00 0.00 0.00 83 1015.3
20260508103823 62 273 0.0 1.0 0.00 0.00 0.00 83 1014.5
20260508103319 62 273 0.0 1.0 0.00 0.00 0.00 82 1014.4
20260508102817 62 184 0.0 0.0 0.00 0.00 0.00 82 1014.0
20260508102315 62 212 0.0 2.0 0.00 0.00 0.00 82 1013.9
20260508101812 62 197 1.0 3.0 0.00 0.00 0.00 83 1013.9
20260508101309 62 176 0.0 1.0 0.00 0.00 0.00 83 1014.0
20260508100807 62 164 0.0 0.0 0.00 0.00 0.00 83 1014.1
20260508100305 62 182 0.0 1.0 0.00 0.00 0.00 83 1013.9
20260508095800 62 182 0.0 2.0 0.00 0.00 0.00 83 1013.8
20260508095258 62 174 0.0 1.0 0.00 0.00 0.00 82 1013.6
20260508094755 62 175 0.0 1.0 0.00 0.00 0.00 83 1014.1
20260508094252 62 187 0.0 0.0 0.00 0.00 0.00 83 1014.2
20260508093749 62 193 0.0 1.0 0.00 0.00 0.00 83 1014.2
20260508093247 62 173 0.0 1.0 0.00 0.00 0.00 83 1014.3
20260508092743 62 175 0.0 0.0 0.00 0.00 0.00 83 1014.0
20260508092242 62 71 0.0 1.0 0.00 0.00 0.00 83 1014.1
20260508091739 62 71 0.0 0.0 0.00 0.00 0.00 82 1014.1
20260508091236 62 71 0.0 0.0 0.00 0.00 0.00 82 1014.1
20260508090734 62 71 1.0 1.0 0.00 0.00 0.00 83 1014.5
20260508090232 62 90 1.0 1.0 0.00 0.00 0.00 83 1014.3
20260508085727 62 116 0.0 1.0 0.00 0.00 0.00 82 1014.4
20260508085225 62 170 0.0 1.0 0.00 0.00 0.00 82 1014.2
20260508084720 62 184 1.0 6.0 0.00 0.00 0.00 82 1013.9
20260508084218 62 174 1.0 6.0 0.00 0.00 0.00 81 1014.1
20260508083715 63 157 1.0 2.0 0.00 0.00 0.00 81 1014.3
20260508083213 63 170 0.0 3.0 0.00 0.00 0.00 81 1014.7
20260508082707 63 154 1.0 2.0 0.00 0.00 0.00 81 1014.7
20260508082206 62 165 1.0 3.0 0.00 0.00 0.00 81 1014.8
20260508081703 62 174 1.0 2.0 0.00 0.00 0.00 82 1015.1
20260508081159 62 158 0.0 1.0 0.00 0.00 0.00 82 1015.3
20260508080656 62 147 0.0 0.0 0.00 0.00 0.00 83 1015.5
20260508080155 62 326 0.0 1.0 0.00 0.00 0.00 83 1015.9
20260508075650 62 263 2.0 3.0 0.00 0.00 0.00 83 1016.2
20260508075148 62 269 0.0 0.0 0.00 0.00 0.00 83 1015.6
20260508074645 62 262 1.0 1.0 0.00 0.00 0.00 83 1015.7
20260508074142 62 127 0.0 1.0 0.00 0.00 0.00 83 1015.3
20260508073639 62 126 0.0 1.0 0.00 0.00 0.00 83 1015.1
20260508073137 62 126 0.0 0.0 0.00 0.00 0.00 83 1015.0
20260508072632 62 126 1.0 1.0 0.00 0.00 0.00 83 1015.3
20260508072130 62 152 0.0 0.0 0.00 0.00 0.00 83 1015.3
20260508071627 62 152 0.0 0.0 0.00 0.00 0.00 83 1015.3
20260508071126 62 152 0.0 0.0 0.00 0.00 0.00 81 1015.4
20260508070623 61 152 0.0 0.0 0.00 0.00 0.00 82 1015.4
20260508070121 61 142 0.0 0.0 0.00 0.00 0.00 83 1015.3
20260508065618 61 142 0.0 0.0 0.00 0.00 0.00 83 1015.4
20260508065116 61 149 0.0 0.0 0.00 0.00 0.00 83 1015.5
20260508064613 61 149 0.0 0.0 0.00 0.00 0.00 83 1015.6
20260508064111 61 149 0.0 0.0 0.00 0.00 0.00 83 1015.9
20260508063608 61 149 0.0 0.0 0.00 0.00 0.00 83 1015.7
20260508063107 61 149 0.0 0.0 0.00 0.00 0.00 83 1015.9
20260508062604 61 149 0.0 0.0 0.00 0.00 0.00 83 1015.9
20260508062100 61 149 0.0 0.0 0.00 0.00 0.00 83 1015.9
20260508061558 61 151 0.0 0.0 0.00 0.00 0.00 83 1015.8
20260508061055 61 151 0.0 0.0 0.00 0.00 0.00 83 1015.8
20260508060551 61 145 0.0 0.0 0.00 0.00 0.00 82 1015.8
20260508060049 61 146 0.0 0.0 0.00 0.00 0.00 82 1016.1
20260508055544 61 150 0.0 0.0 0.00 0.00 0.00 82 1016.0
20260508055041 60 149 0.0 0.0 0.00 0.00 0.00 83 1015.9
20260508054538 60 149 0.0 0.0 0.00 0.00 0.00 83 1015.8
20260508054035 60 149 0.0 0.0 0.00 0.00 0.00 83 1015.8
20260508053532 61 149 0.0 0.0 0.00 0.00 0.00 82 1016.0
20260508053030 61 149 0.0 0.0 0.00 0.00 0.00 82 1015.9
20260508052527 61 150 0.0 0.0 0.00 0.00 0.00 81 1016.1
20260508052024 61 149 0.0 0.0 0.00 0.00 0.00 80 1015.9
20260508051520 61 150 0.0 0.0 0.00 0.00 0.00 78 1016.0
20260508051015 62 139 0.0 0.0 0.00 0.00 0.00 78 1015.9
20260508050512 61 138 0.0 0.0 0.00 0.00 0.00 79 1015.8
20260508050009 61 139 0.0 0.0 0.00 0.00 0.00 79 1015.9
20260508045506 61 139 0.0 0.0 0.00 0.00 0.00 81 1016.0
20260508045003 61 139 0.0 0.0 0.00 0.00 0.00 81 1015.9
20260508044500 61 139 0.0 0.0 0.00 0.00 0.00 81 1015.9
20260508043955 61 139 0.0 0.0 0.00 0.00 0.00 80 1015.6
20260508043453 61 139 0.0 0.0 0.00 0.00 0.00 81 1016.0
20260508042949 61 139 0.0 0.0 0.00 0.00 0.00 80 1015.5
20260508042447 61 139 0.0 0.0 0.00 0.00 0.00 80 1015.6
20260508041944 61 139 0.0 0.0 0.00 0.00 0.00 80 1015.9
20260508041440 62 139 0.0 0.0 0.00 0.00 0.00 78 1015.8
20260508040937 62 139 0.0 0.0 0.00 0.00 0.00 77 1015.8
20260508040434 62 139 0.0 0.0 0.00 0.00 0.00 76 1015.7
20260508035932 62 136 0.0 0.0 0.00 0.00 0.00 76 1015.7
20260508035429 62 140 0.0 0.0 0.00 0.00 0.00 76 1015.7
20260508034925 62 152 0.0 0.0 0.00 0.00 0.00 76 1015.8
20260508034423 62 171 0.0 0.0 0.00 0.00 0.00 75 1015.6
20260508033919 63 171 0.0 0.0 0.00 0.00 0.00 74 1015.7
20260508033417 63 171 0.0 0.0 0.00 0.00 0.00 73 1015.7
20260508032915 64 171 0.0 0.0 0.00 0.00 0.00 70 1015.6
20260508032412 64 172 0.0 0.0 0.00 0.00 0.00 70 1015.6
20260508031909 64 171 0.0 0.0 0.00 0.00 0.00 69 1015.5
20260508031406 64 171 0.0 1.0 0.00 0.00 0.00 68 1015.6
20260508030902 64 180 0.0 0.0 0.00 0.00 0.00 68 1015.5
20260508030359 64 180 0.0 1.0 0.00 0.00 0.00 69 1015.6
20260508025856 64 180 0.0 0.0 0.00 0.00 0.00 68 1015.5
20260508025353 65 180 0.0 0.0 0.00 0.00 0.00 68 1015.6
20260508024849 65 173 0.0 0.0 0.00 0.00 0.00 68 1015.4
20260508024346 65 170 0.0 0.0 0.00 0.00 0.00 67 1015.6
20260508023843 65 172 0.0 1.0 0.00 0.00 0.00 67 1015.5
20260508023340 65 156 0.0 0.0 0.00 0.00 0.00 66 1015.5
20260508022837 65 172 0.0 1.0 0.00 0.00 0.00 66 1015.5